SCP
0 0 0 0 0 0 0 0 0 0 0 0 0 0 0 0 0 0 0 0 0 0 0 0 0 0 0 0 0 0 0 0 0 0 0 0 0 0 0 0 0 0 0
0 0 0 0 0 0 0 0 0 0 0 0 0 0 0 0 0 0 0 0 0 0 0 0 0 0 0 0 0 0 0 0 0 0 0 0 0 0 0 0 0 0 0
0 0 0 0 0 0 0 0 0 0 0 0 0 0 0 0 0 0 0 0 0 0 0 0 0 0 0 0 0 0 0 0 0 0 0 0 0 0 0 0 0 0 0
0 0 0 0 0 0 0 0 0 0 0 0 0 0 0 0 0 0 0 0 0 0 0 0 0 0 0 0 0 0 0 0 0 0 0 0 0 0 0 0 0 0 0
0 0 0 0 0 0 0 0 0 0 0 0 0 0 0 0 0 0 0 0 0 0 0 0 0 0 0 0 0 0 0 0 0 0 0 0 0 0 0 0 0 0 0
0 0 0 0 0 0 0 0 0 0 0 0 0 0 0 0 0 0 0 0 0 0 0 0 0 0 0 0 0 0 0 0 0 0 0 0 0 0 0 0 0 0 0
0 0 0 0 0 0 0 0 0 0 0 0 0 0 0 0 0 0 0 0 0 0 0 0 0 0 0 0 0 0 0 0 0 0 0 0 0 0 0 0 0 0 0
0 0 0 0 0 0 0 0 0 0 0 0 0 0 0 0 0 0 0 0 0 0 0 0 0 0 0 0 0 0 0 0 0 0 0 0 0 0 0 0 0 0 0
0 0 0 0 0 0 0 0 0 0 0 0 0 0 0 0 0 0 0 0 0 0 0 0 0 0 0 0 0 0 0 0 0 0 0 0 0 0 0 0 0 0 0
0 0 0 0 0 0 0 0 0 0 0 0 0 0 0 0 0 0 0 0 0 0 0 0 0 0 0 0 0 0 0 0 0 0 0 0 0 0 0 0 0 0 0
0 0 0 0 0 0 0 0 0 0 0 0 0 0 0 0 0 0 0 0 0 0 0 0 0 0 0 0 0 0 0 0 0 0 0 0 0 0 0 0 0 0 0
0 0 0 0 0 0 0 0 0 0 0 0 0 0 0 0 0 0 0 0 0 0 0 0 0 0 0 0 0 0 0 0 0 0 0 0 0 0 0 0 0 0 0
0 0 0 0 0 0 0 0 0 0 0 0 0 0 0 0 0 0 0 0 0 0 0 0 0 0 0 0 0 0 0 0 0 0 0 0 0 0 0 0 0 0 0
0 0 0 0 0 0 0 0 0 0 0 0 0 0 0 0 0 0 0 0 0 0 0 0 0 0 0 0 0 0 0 0 0 0 0 0 0 0 0 0 0 0 0
0 0 0 0 0 0 0 0 0 0 0 0 0 0 0 0 0 0 0 0 0 0 0 0 0 0 0 0 0 0 0 0 0 0 0 0 0 0 0 0 0 0 0
0 0 0 0 0 0 0 0 0 0 0 0 0 0 0 0 0 0 0 0 0 0 0 0 0 0 0 0 0 0 0 0 0 0 0 0 0 0 0 0 0 0 0
0 0 0 0 0 0 0 0 0 0 0 0 0 0 0 0 0 0 0 0 0 0 0 0 0 0 0 0 0 0 0 0 0 0 0 0 0 0 0 0 0 0 0
0 0 0 0 0 0 0 0 0 0 0 0 0 0 0 0 0 0 0 0 0 0 0 0 0 0 0 0 0 0 0 0 0 0 0 0 0 0 0 0 0 0 0
0 0 0 0 0 0 0 0 0 0 0 0 0 0 0 0 0 0 0 0 0 0 0 0 0 0 0 0 0 0 0 0 0 0 0 0 0 0 0 0 0 0 0
0 0 0 0 0 0 0 0 0 0 0 0 0 0 0 0 0 0 0 0 0 0 0 0 0 0 0 0 0 0 0 0 0 0 0 0 0 0 0 0 0 0 0
0 0 0 0 0 0 0 0 0 0 0 0 0 0 0 0 0 0 0 0 0 0 0 0 0 0 0 0 0 0 0 0 0 0 0 0 0 0 0 0 0 0 0
0 0 0 0 0 0 0 0 0 0 0 0 0 0 0 0 0 0 0 0 0 0 0 0 0 0 0 0 0 0 0 0 0 0 0 0 0 0 0 0 0 0 0
0 0 0 0 0 0 0 0 0 0 0 0 0 0 0 0 0 0 0 0 0 0 0 0 0 0 0 0 0 0 0 0 0 0 0 0 0 0 0 0 0 0 0
0 0 0 0 0 0 0 0 0 0 0 0 0 0 0 0 0 0 0 0 0 0 0 0 0 0 0 0 0 0 0 0 0 0 0 0 0 0 0 0 0 0 0
0 0 0 0 0 0 0 0 0 0 0 0 0 0 0 0 0 0 0 0 0 0 0 0 0 0 0 0 0 0 0 0 0 0 0 -0 -0 0 0 0 0 0 0
0 0 0 0 0 0 0 0 0 0 0 0 0 0 0 0 0 0 0 0 0 0 0 0 0 0 0 0 0 0 0 0 0 0 0 -0 -0 0 0 0 0 0 0
Wind_Speed
6 5 4 4 4 4 5 5 5 5 6 6 7 7 7 7 6 6 8 10 9 8 8 8 10 10 8 8 9 8 8 7 9 9 6 8 10 10 10 9 9 9 12
6 5 4 4 5 5 5 5 5 6 6 6 7 7 8 8 7 8 10 10 10 10 9 9 10 10 10 9 9 10 9 8 7 11 9 8 10 10 9 9 10 11 10
6 5 5 5 5 4 4 5 5 6 6 6 6 7 8 8 8 9 10 11 11 10 10 10 10 9 10 10 11 10 9 8 6 8 10 8 8 9 9 10 11 10 12
7 6 5 5 4 3 4 5 6 6 6 7 7 7 8 8 10 11 11 12 11 11 11 11 10 10 11 11 11 10 9 8 6 7 9 8 7 7 7 8 10 9 10
7 6 6 4 2 3 5 6 6 6 8 7 7 8 8 9 10 13 11 10 10 10 10 10 10 14 17 15 12 10 9 6 6 8 9 8 7 7 7 7 10 11 11
7 7 5 4 4 4 5 6 7 7 7 7 7 8 10 11 21 26 18 7 7 9 8 8 8 10 16 22 25 22 16 10 8 8 7 7 8 7 7 8 9 10 8
8 7 6 5 5 5 6 7 7 7 7 7 7 8 11 14 25 25 24 11 7 7 7 6 7 9 14 10 15 15 15 19 18 11 8 8 8 8 8 10 9 10 11
8 7 7 6 6 5 6 7 7 7 7 6 7 9 10 14 24 25 23 9 6 6 6 5 6 6 11 14 7 7 7 9 13 9 8 9 9 9 9 10 10 11 12
9 8 8 7 6 6 7 7 7 7 6 6 7 8 9 12 21 24 19 5 5 6 6 6 8 6 18 21 10 9 10 8 12 17 18 15 17 16 12 6 6 7 8
11 9 8 8 7 7 7 7 6 6 6 6 6 7 8 9 18 23 19 3 5 5 5 6 12 15 19 20 9 9 12 8 8 10 11 13 10 11 14 6 4 6 6
10 9 8 8 8 7 6 5 5 6 6 5 6 6 7 10 16 20 20 5 5 5 6 5 7 19 20 20 16 9 14 13 9 9 8 7 6 5 6 6 6 6 7
10 9 8 7 7 6 5 5 5 5 5 5 5 6 5 8 13 16 20 17 13 5 6 6 9 19 19 19 14 17 20 16 8 8 8 7 7 6 6 7 8 9 10
11 10 8 7 7 6 5 5 4 4 3 3 4 5 5 5 8 18 19 18 18 9 7 15 17 19 17 12 16 20 16 9 8 9 9 8 7 8 8 7 7 7 9
12 10 8 8 7 6 5 4 4 3 3 3 4 5 6 6 6 7 6 7 11 10 7 11 17 17 14 14 13 11 8 8 9 8 9 8 8 7 6 6 5 4 4
12 10 9 8 6 5 5 4 4 4 4 4 3 3 5 6 9 17 12 8 7 7 7 4 5 6 7 7 7 7 7 8 9 9 9 9 9 8 8 7 5 4 3
13 11 8 7 6 5 4 3 6 6 8 8 7 6 6 10 16 16 16 16 15 15 9 6 7 8 9 9 9 8 8 9 9 9 9 10 9 9 8 7 6 5 4
13 12 9 8 7 6 5 4 3 3 5 6 7 7 7 11 13 13 15 15 14 13 6 6 7 8 8 8 7 6 6 8 7 8 9 9 9 9 8 8 8 7 6
13 14 12 8 7 6 6 5 4 3 2 2 4 5 7 10 11 11 13 10 7 7 5 6 7 8 8 8 7 7 6 6 6 7 7 8 9 9 9 9 8 8 7
13 10 9 8 7 6 6 5 4 4 3 3 2 2 5 8 8 9 9 4 5 6 7 7 7 8 8 8 7 6 6 6 6 6 6 7 8 8 8 9 8 13 9
12 17 14 9 8 7 6 5 5 4 3 2 2 1 1 3 2 3 3 3 4 5 7 7 7 8 8 8 7 7 5 5 5 5 6 6 7 7 8 9 9 8 7
12 14 19 11 8 8 7 6 5 4 4 3 2 2 2 0 2 2 2 3 4 5 6 7 7 8 7 7 7 7 6 4 4 4 5 6 7 6 7 7 8 8 8
13 12 11 10 8 8 7 6 6 5 5 4 3 2 2 0 1 2 2 3 3 4 5 6 6 6 7 7 7 7 6 4 4 4 4 5 6 6 6 7 8 8 9
13 14 12 10 9 12 9 7 6 6 5 4 4 3 2 1 1 1 2 2 3 4 4 5 6 7 7 7 7 6 6 4 2 2 3 4 5 6 6 6 8 9 9
14 15 14 12 11 10 9 8 7 7 6 5 4 3 3 2 2 2 2 2 3 4 5 5 6 9 12 10 7 6 4 3 2 2 3 4 4 5 5 5 7 9 8
15 15 14 13 12 11 10 9 9 8 7 6 5 4 3 3 2 2 1 1 3 4 6 6 6 8 11 13 10 8 7 6 4 3 2 3 4 5 5 6 6 6 7
15 15 14 12 12 11 11 10 9 9 8 7 6 5 4 4 3 2 1 0 2 4 5 5 7 10 11 9 10 12 8 5 4 4 3 2 4 4 5 5 7 6 7
Wind_Direction
196 207 227 246 256 263 266 270 279 286 290 293 295 296 299 299 298 296 293 295 292 293 296 300 300 302 301 307 306 307 307 303 301 304 303 304 300 300 300 298 297 288 281
189 195 223 245 255 260 267 278 286 289 289 291 294 299 301 299 291 284 286 292 286 286 288 291 293 300 301 302 301 303 302 298 300 309 310 307 303 301 301 306 306 298 285
179 196 224 242 252 264 281 291 293 291 291 293 296 296 292 290 288 282 277 278 276 275 277 280 284 289 294 294 294 294 295 300 299 299 304 304 303 308 314 312 309 304 298
180 196 221 238 253 278 296 295 290 288 290 290 289 288 291 292 285 279 275 274 271 269 271 274 276 279 282 285 292 292 294 295 295 296 298 301 304 310 320 320 316 316 308
180 197 216 231 268 289 287 284 282 282 288 285 287 290 293 291 281 276 270 268 268 267 269 271 275 295 309 311 312 308 304 298 299 297 295 300 306 317 318 317 313 314 304
181 195 203 218 242 259 269 273 276 278 281 283 283 287 292 294 299 306 313 291 277 273 272 272 281 302 309 320 318 319 327 319 305 297 297 299 298 301 306 308 311 312 309
181 190 197 210 235 253 269 277 279 281 280 281 280 282 286 291 304 313 322 325 301 295 283 284 302 311 319 300 306 326 326 321 317 310 300 287 287 287 292 295 294 295 288
182 191 197 206 227 246 261 270 274 273 273 274 276 280 284 294 310 318 328 334 309 298 292 291 292 296 304 315 335 324 306 303 306 306 282 275 275 269 263 273 284 291 286
189 194 195 200 217 236 251 260 265 270 276 276 277 282 288 301 315 323 337 323 310 307 304 311 317 305 313 334 347 327 314 306 321 324 319 313 308 306 297 287 288 296 297
192 191 190 195 209 227 242 254 264 274 278 284 290 293 298 303 318 329 339 322 310 311 310 315 325 322 328 340 345 327 319 329 333 323 320 315 309 302 303 291 271 277 283
179 179 187 197 210 225 241 256 273 280 288 295 302 305 306 313 326 329 336 338 316 317 316 314 310 323 335 341 344 332 338 352 334 320 314 306 299 287 279 266 249 248 253
170 177 187 198 213 223 233 254 263 277 294 305 312 309 305 315 327 330 338 344 349 336 322 312 310 329 340 343 342 343 352 350 331 327 324 319 314 302 289 276 260 245 239
169 178 187 199 210 214 223 242 258 271 280 297 305 309 315 318 323 334 339 344 347 346 329 334 337 341 342 337 338 348 352 341 337 335 329 324 316 304 299 291 276 259 250
174 180 187 197 206 212 219 222 229 246 264 281 295 307 314 314 311 316 321 329 338 334 329 332 338 339 341 338 341 341 340 342 346 335 329 325 321 321 318 316 307 301 283
176 181 187 193 196 207 216 214 219 217 226 248 250 274 302 308 314 331 340 333 329 327 341 331 326 330 335 335 335 337 339 343 348 343 340 338 337 339 338 335 327 325 326
178 183 185 187 193 199 206 233 258 247 256 270 275 283 297 309 323 336 339 340 342 350 357 338 338 339 338 338 338 339 341 345 347 347 348 345 344 345 346 344 348 348 350
180 179 180 184 189 192 194 196 227 273 270 268 266 286 304 320 332 339 342 348 351 360 358 338 337 336 334 333 332 333 335 335 338 344 349 349 349 350 353 354 356 356 353
179 181 180 182 184 185 187 186 190 203 242 277 285 294 316 330 339 347 353 357 350 354 344 337 336 334 333 332 331 331 332 333 338 344 348 351 351 354 358 359 358 359 353
179 179 178 175 180 181 180 179 187 199 211 234 257 296 342 342 349 359 4 357 340 341 339 336 334 332 330 328 327 326 326 330 337 342 347 350 351 355 360 360 358 2 5
181 184 176 176 179 180 180 182 188 193 200 216 229 217 313 340 337 344 350 336 338 336 334 332 330 327 327 326 326 325 327 331 339 344 345 349 351 355 359 359 359 359 358
175 182 181 180 181 182 182 185 184 182 188 201 216 223 271 281 302 317 326 328 331 328 325 324 323 324 324 324 326 327 330 334 343 349 348 349 352 355 356 358 356 358 358
171 173 176 176 178 181 183 182 180 180 186 196 212 230 276 230 281 309 313 316 316 311 312 317 318 319 322 326 328 331 333 340 350 356 355 353 354 356 356 0 2 1 2
170 170 173 174 174 186 187 183 181 181 185 190 191 193 193 187 233 282 301 313 318 316 316 319 320 321 326 328 326 328 335 345 358 15 7 2 1 2 360 0 5 6 4
174 172 172 172 173 180 182 182 183 183 183 185 186 186 182 180 213 260 285 311 325 322 320 321 321 324 329 333 330 330 340 359 31 52 40 22 12 3 2 2 4 4 7
177 173 172 171 174 178 181 183 183 182 183 185 183 180 176 180 197 223 258 313 333 324 323 323 324 328 329 330 331 335 355 23 49 79 61 37 24 15 11 9 6 7 11
180 175 171 170 172 176 180 181 181 180 181 182 177 172 175 180 186 198 216 268 325 318 319 320 322 326 326 328 332 344 5 35 50 88 94 59 38 29 26 20 18 18 17